Shenandoah, IA

3:20 AM CDT on July 23, 2017 (GMT -0500)
Shenandoah Municipal

Weather History for KSDA - May, 2013

Change the Weather History Date:

Saturday, May 25, 2013

  Actual Average Record
Temperature  
Mean Temperature 70 °F -  
Max Temperature 80 °F 78 °F 99 °F (1967)
Min Temperature 59 °F 54 °F 40 °F (1979)
Cooling Degree Days 4    
Growing Degree Days 20 (Base 50)    
Moisture  
Dew Point 56 °F    
Average Humidity 67    
Maximum Humidity 83    
Minimum Humidity 45    
Precipitation  
Precipitation 0.10 in - - ()
Sea Level Pressure  
Sea Level Pressure 30.06 in    
Wind  
Wind Speed 12 mph (SE)    
Max Wind Speed 21 mph    
Max Gust Speed 28 mph    
Visibility 10 miles    
Events Rain    
Averages and records for this station are not official NWS values.
T = Trace of Precipitation, MM = Missing Value Source: NWS Daily Summary

Daily Weather History Graph

Daily Weather History Graph

Search for Another Location

Airport or City:

Trip Planner

Search our weather history database for the weather conditions in past years. The results will help you decide how hot, cold, wet, or windy it might be!

Date:

Astronomy

May. 25, 2013 Rise Set
Actual Time 5:56 AM CDT 8:41 PM CDT
Civil Twilight 5:24 AM CDT 9:13 PM CDT
Nautical Twilight 4:43 AM CDT 9:54 PM CDT
Astronomical Twilight 3:57 AM CDT 10:40 PM CDT
Moon 9:30 PM CDT (5/25) 6:24 AM CDT (5/25)
Length of Visible Light 15h 49m
Length of Day
14h 45m
Full, 100% of the Moon is Illuminated
May 25
Full
May 31
Last Quarter
Jun 8
New
Jun 16
First Quarter
Jun 23
Full

Hourly Weather History & Observations

Time (CDT) Temp. Heat Index Dew Point Humidity Pressure Visibility Wind Dir Wind Speed Gust Speed Precip Events Conditions
12:15 AM 64.4 °F - 42.8 °F 45% 30.17 in 10.0 mi ESE 10.4 mph - N/A   Overcast
12:35 AM 64.4 °F - 42.8 °F 45% 30.16 in 10.0 mi ESE 10.4 mph - N/A   Overcast
12:55 AM 62.6 °F - 42.8 °F 48% 30.15 in 10.0 mi ESE 11.5 mph - N/A   Overcast
1:15 AM 62.6 °F - 42.8 °F 48% 30.15 in 10.0 mi SE 12.7 mph 17.3 mph N/A   Overcast
1:35 AM 62.6 °F - 42.8 °F 48% 30.13 in 10.0 mi SE 13.8 mph 19.6 mph N/A   Overcast
1:55 AM 62.6 °F - 42.8 °F 48% 30.13 in 10.0 mi SE 15.0 mph 18.4 mph N/A   Overcast
2:15 AM 62.6 °F - 42.8 °F 48% 30.11 in 10.0 mi SE 13.8 mph - N/A   Overcast
2:35 AM 62.6 °F - 42.8 °F 48% 30.12 in 10.0 mi SE 16.1 mph 19.6 mph N/A   Overcast
2:55 AM 62.6 °F - 42.8 °F 48% 30.11 in 10.0 mi SSE 16.1 mph - N/A   Overcast
3:15 AM 62.6 °F - 42.8 °F 48% 30.11 in 10.0 mi SE 15.0 mph - N/A   Overcast
3:35 AM 62.6 °F - 42.8 °F 48% 30.10 in 10.0 mi SSE 15.0 mph - N/A   Overcast
3:55 AM 62.6 °F - 42.8 °F 48% 30.08 in 10.0 mi SSE 16.1 mph 21.9 mph N/A   Scattered Clouds
4:15 AM 64.4 °F - 42.8 °F 45% 30.08 in 10.0 mi SSE 16.1 mph 21.9 mph N/A   Mostly Cloudy
4:35 AM 64.4 °F - 44.6 °F 49% 30.07 in 10.0 mi SSE 15.0 mph 23.0 mph N/A   Mostly Cloudy
4:55 AM 64.4 °F - 44.6 °F 49% 30.04 in 10.0 mi SSE 20.7 mph 27.6 mph N/A   Mostly Cloudy
5:15 AM 62.6 °F - 46.4 °F 55% 30.04 in 10.0 mi South 18.4 mph 26.5 mph N/A   Scattered Clouds
5:35 AM 60.8 °F - 50.0 °F 68% 30.04 in 7.0 mi South 19.6 mph - 0.04 in Rain Rain
5:55 AM 60.8 °F - 51.8 °F 72% 30.08 in 10.0 mi SSW 13.8 mph 19.6 mph 0.04 in Rain Light Rain
6:15 AM 62.6 °F - 53.6 °F 72% 30.11 in 10.0 mi WSW 9.2 mph - N/A Rain Light Rain
6:35 AM 60.8 °F - 53.6 °F 77% 30.10 in 10.0 mi Calm Calm - 0.03 in Rain Rain
6:55 AM 59.0 °F - 53.6 °F 82% 30.04 in 10.0 mi East 12.7 mph - 0.05 in Rain Rain
7:15 AM 60.8 °F - 53.6 °F 77% 30.09 in 10.0 mi SSW 3.5 mph - 0.01 in Rain Light Rain
7:35 AM 60.8 °F - 53.6 °F 77% 30.11 in 10.0 mi Calm Calm - 0.01 in   Scattered Clouds
7:55 AM 60.8 °F - 55.4 °F 82% 30.10 in 10.0 mi Calm Calm - 0.01 in   Scattered Clouds
8:15 AM 60.8 °F - 55.4 °F 82% 30.09 in 10.0 mi Calm Calm - N/A   Mostly Cloudy
8:35 AM 62.6 °F - 57.2 °F 82% 30.09 in 10.0 mi South 4.6 mph - N/A   Mostly Cloudy
8:55 AM 64.4 °F - 59.0 °F 83% 30.11 in 10.0 mi SW 9.2 mph - N/A   Scattered Clouds
9:15 AM 64.4 °F - 57.2 °F 77% 30.12 in 10.0 mi West 8.1 mph - N/A   Scattered Clouds
9:35 AM 64.4 °F - 57.2 °F 77% 30.12 in 10.0 mi SW 4.6 mph - N/A   Scattered Clouds
9:55 AM 66.2 °F - 60.8 °F 83% 30.13 in 10.0 mi West 6.9 mph - N/A   Clear
10:15 AM 66.2 °F - 60.8 °F 83% 30.11 in 10.0 mi WSW 5.8 mph - N/A   Clear
10:35 AM 66.2 °F - 60.8 °F 83% 30.07 in 10.0 mi South 11.5 mph - N/A   Clear
10:55 AM 66.2 °F - 60.8 °F 83% 30.03 in 10.0 mi SSE 15.0 mph - N/A   Clear
11:15 AM 68.0 °F - 60.8 °F 78% 30.06 in 10.0 mi East 6.9 mph - N/A   Clear
11:35 AM 69.8 °F - 62.6 °F 78% 30.06 in 10.0 mi East 6.9 mph - N/A   Clear
11:55 AM 66.2 °F - 60.8 °F 83% 30.08 in 10.0 mi NE 17.3 mph - N/A   Scattered Clouds
12:15 PM 66.2 °F - 59.0 °F 78% 30.08 in 10.0 mi East 12.7 mph - N/A   Scattered Clouds
12:35 PM 68.0 °F - 60.8 °F 78% 30.07 in 10.0 mi East 10.4 mph - N/A   Clear
12:55 PM 71.6 °F - 60.8 °F 69% 30.06 in 10.0 mi East 11.5 mph - N/A   Clear
1:15 PM 71.6 °F - 62.6 °F 73% 30.06 in 10.0 mi ESE 9.2 mph - N/A   Scattered Clouds
1:35 PM 71.6 °F - 62.6 °F 73% 30.05 in 10.0 mi ESE 13.8 mph - N/A   Clear
1:55 PM 69.8 °F - 60.8 °F 73% 30.04 in 10.0 mi ESE 16.1 mph - N/A   Scattered Clouds
2:15 PM 71.6 °F - 60.8 °F 69% 30.04 in 10.0 mi SE 13.8 mph - N/A   Scattered Clouds
2:35 PM 71.6 °F - 60.8 °F 69% 30.04 in 10.0 mi ESE 15.0 mph - N/A   Clear
2:55 PM 71.6 °F - 60.8 °F 69% 30.05 in 10.0 mi ESE 10.4 mph - N/A   Scattered Clouds
3:15 PM 73.4 °F - 60.8 °F 65% 30.04 in 10.0 mi ESE 13.8 mph - N/A   Scattered Clouds
3:35 PM 71.6 °F - 60.8 °F 69% 30.04 in 10.0 mi ESE 10.4 mph - N/A   Mostly Cloudy
3:55 PM 73.4 °F - 60.8 °F 65% 30.04 in 10.0 mi ESE 12.7 mph - N/A   Scattered Clouds
4:15 PM 75.2 °F - 60.8 °F 61% 30.03 in 10.0 mi SE 13.8 mph - N/A   Clear
4:35 PM 77.0 °F - 62.6 °F 61% 30.03 in 10.0 mi SSE 11.5 mph - N/A   Clear
4:55 PM 75.2 °F - 60.8 °F 61% 30.03 in 10.0 mi SE 6.9 mph - N/A   Scattered Clouds
5:15 PM 77.0 °F - 62.6 °F 61% 30.02 in 10.0 mi SE 8.1 mph - N/A   Scattered Clouds
5:35 PM 78.8 °F - 62.6 °F 57% 30.01 in 10.0 mi SSE 11.5 mph - N/A   Scattered Clouds
5:55 PM 80.6 °F 81.8 °F 62.6 °F 54% 30.00 in 10.0 mi SE 10.4 mph - N/A   Clear
6:15 PM 80.6 °F 81.8 °F 62.6 °F 54% 30.00 in 10.0 mi SE 10.4 mph - N/A   Clear
6:35 PM 78.8 °F - 62.6 °F 57% 30.00 in 10.0 mi SE 11.5 mph - N/A   Clear
6:55 PM 78.8 °F - 62.6 °F 57% 30.00 in 10.0 mi ESE 10.4 mph 16.1 mph N/A   Clear
7:15 PM 75.2 °F - 62.6 °F 65% 29.99 in 10.0 mi ESE 12.7 mph - N/A   Clear
7:35 PM 75.2 °F - 60.8 °F 61% 30.00 in 10.0 mi ESE 13.8 mph - N/A   Clear
7:55 PM 73.4 °F - 60.8 °F 65% 30.00 in 10.0 mi ESE 13.8 mph - N/A   Scattered Clouds
8:15 PM 71.6 °F - 60.8 °F 69% 30.00 in 10.0 mi ESE 12.7 mph - N/A   Scattered Clouds
8:35 PM 71.6 °F - 60.8 °F 69% 30.00 in 10.0 mi ESE 13.8 mph - N/A   Scattered Clouds
8:55 PM 71.6 °F - 60.8 °F 69% 30.01 in 10.0 mi ESE 13.8 mph - N/A   Overcast
9:15 PM 69.8 °F - 60.8 °F 73% 30.02 in 10.0 mi ESE 13.8 mph - N/A   Overcast
9:35 PM 69.8 °F - 60.8 °F 73% 30.03 in 10.0 mi ESE 11.5 mph - N/A   Overcast
9:55 PM 69.8 °F - 60.8 °F 73% 30.04 in 10.0 mi SE 12.7 mph - N/A   Overcast
10:15 PM 69.8 °F - 60.8 °F 73% 30.05 in 10.0 mi ESE 12.7 mph - N/A   Overcast
10:35 PM 68.0 °F - 60.8 °F 78% 30.06 in 10.0 mi ESE 11.5 mph - N/A   Overcast
10:55 PM 68.0 °F - 60.8 °F 78% 30.06 in 10.0 mi ESE 15.0 mph 18.4 mph N/A   Overcast
11:15 PM 66.2 °F - 59.0 °F 78% 30.06 in 10.0 mi ESE 17.3 mph 20.7 mph N/A   Mostly Cloudy
11:35 PM 66.2 °F - 59.0 °F 78% 30.04 in 10.0 mi ESE 16.1 mph - N/A   Mostly Cloudy
11:55 PM 66.2 °F - 57.2 °F 73% 30.04 in 10.0 mi ESE 15.0 mph - N/A   Mostly Cloudy